STARLINK-4450, 53491

Orbit data source: Space-Track

STARLINK-4450, 53491 is a payload satellite owned by SpaceX/Seattle (US) in SSO that was launched on Fri, 12 Aug 2022 UTC via an FALCON 9 launch vehicle from the Air Force Western Test Range (AFWTR). Payload-class satellites include a variety of spacecraft equipped with specific instruments for various scientific and technological missions. These include communications satellites like Starlink; space stations such as the ISS; scientific satellites like the Hubble; Earth observation satellites from companies like Planet Labs, Umbra, and HawkEye 360; GPS; miniature CubeSats for education and research; and military/defense satellites.

Loading next visibility...
Identifier
53491, 2022-099AC
Orbit
SSO
Country
Flag of USUS
Related business
Manufacturer
SpaceX/Seattle
Mission
Operational Commercial Communications
Bus & Motor
STARLINK, Unknown motor
Mass
300 kg wet, ~275 kg dry
Launch date (UTC)
2022-08-12 (3 years ago)
Launch vehicle
FALCON 9
Launch site
Air Force Western Test Range (AFWTR)
Object type
Payload
Rocket body
Debris
Shape & HBR
Box + 1 Pan, 10.1 m
Radar Cross Section
13.562 m², Large (>1 m²)

Expand to show TLE details & history
Last TLE update: 10 hours ago

TLE from 10 hours ago
0 STARLINK-4450
1 53491U 22099AC  25308.31036034 -.00002266  00000-0 -17186-3 0  9996
2 53491  97.6029  67.4652 0002870 238.4318 121.6626 15.01267314177170
Epoch: 2025-11-04T07:26Z
TLE epoch observation values (Epoch: 2025-11-04T07:26:55.133Z)
Latitude
-0.00006°
Longitude
-88.06373°
Altitude
567.093 km
Speed
7.577 km/s
True Right ascension
04h 29m 51s
True Declination
0° 00' 00"
Sunlit
Object was in full shadow at epoch
Visualization orbit readout
Latitude
Unknown
Longitude
Unknown
Altitude
Unknown
Speed
Unknown
Apparent Right ascension
Unknown
Apparent Declination
Unknown
Sunlit
N/A
Visualization observer readout
Local Sidereal Time
13:52:06
Azimuth
Unknown
Elevation
Unknown
Doppler factor
Unknown
Orbital elements
Apogee altitude
561.978 km
Perigee altitude
557.995 km
Semi-major axis
6,938.124 km
Eccentricity
0.00029
Inclination
97.6029°
RAAN
67.4652°
Arg. of periapsis
238.4318°
True anomaly
121.69059°
Mean anomaly
121.6626°
Eccentric anomaly
121.67659°
Mean motion
3.75561 °/min
Orbital period
95.86 mins
BSTAR
-0.00017186
Loading maneuver chart data...
Computing Atmospheric mass density...
Loading historical data...
Loading historical data...
Loading historical data...
Loading historical data...
Loading historical data...
Loading historical data...
Loading historical data...

Documentation

Showing up to 5 results
|